Other Public Products
Issued by NWS Grand Forks, ND

Home | Current Version | Previous Version | Text Only | Print | Product List | Glossary Off
Versions: 1 2 3 4 5 6 7 8 9 10 11 12 13 14 15 16 17 18 19 20 21 22 23 24 25 26 27 28 29 30 31 32 33 34 35 36 37 38 39 40 41 42 43 44 45 46 47 48 49 50

000
FPUS83 KFGF 240710
OPUFGF
PRAIRIE TO PINES WEATHER ROUNDUP
NATIONAL WEATHER SERVICE EASTERN NORTH DAKOTA/GRAND FORKS ND
200 AM CDT SAT JUN 24 2017

 **SATELLITE DATA USED TO AUGMENT SKY COVER AT AUTOMATED STATIONS**
 *****  WEATHER ACROSS EASTERN NORTH DAKOTA  *****

CITY           SKY/WX    TMP DP  RH WIND       PRES   REMARKS
GRAND FORKS    FAIR      49  42  77 W8        29.97S
GRAND FORKS AF FAIR      48  41  76 NW7       29.98S
GRAND CITY NWS NOT AVBL
BUXTON         NOT AVBL
DEVILS LAKE    FAIR      50  40  68 NW12      30.01F
FARGO          FAIR      48  39  71 W8        30.00S
WAHPETON ARPT  FAIR      45  37  76 W7        30.02S
$$

 *****  WEATHER ACROSS CENTRAL AND WESTERN NORTH DAKOTA  *****

CITY           SKY/WX    TMP DP  RH WIND       PRES   REMARKS
JAMESTOWN      FAIR      47  39  74 W8        30.04S
BISMARCK       FAIR      48  38  68 SW5       30.10S
MINOT          FAIR      48  43  82 W15       30.08S
MINOT AFB      FAIR      45  42  88 NW12      30.08R
GARRISON         N/A     47  43  86 NW10      30.10S
WILLISTON      MOCLDY    50  37  61 NW12      30.17S
DICKINSON      FAIR      44  31  60 W9        30.13F
HETTINGER      MOCLDY    42  31  64 W5        30.18F
$$

 *****  OTHER OBSERVATIONS NORTHEAST NORTH DAKOTA  *****

CITY           SKY/WX    TMP DP  RH WIND       PRES   REMARKS
WALHALLA       NOT AVBL
LANGDON        CLOUDY    46  45  93 W14       29.98S
CAVALIER       CLOUDY    52  43  71 NW8       29.94F
GRAFTON        CLOUDY    54  43  66 W12       29.97S
CANDO          NOT AVBL
FORT TOTTEN      N/A     52  40  64 NW7       29.95S
ROLLA            N/A     48  41  76 NW18      30.01F
RUGBY          NOT AVBL
 ***** THE ABOVE OBSERVATIONS ARE NON NWS ARE NOT QUALITY
        CONTROLLED AND MAY MIS-REPORT RAIN FOR SNOW...
$$

 *****  OTHER OBSERVATIONS SOUTHEAST NORTH DAKOTA *****

CITY           SKY/WX    TMP DP  RH WIND       PRES   REMARKS
COOPERSTOWN    FAIR      48  41  76 W9        30.02S
VALLEY CITY    FAIR      48  41  76 W10       30.04S
OAKES          NOT AVBL
GWINNER        SUNNY     46  41  81 W9        30.04F
SHEYENNE NWR     N/A     46  40  78 W5        29.95S
BUFFALO        NOT AVBL
WYNDMERE       NOT AVBL
 ***** THE ABOVE OBSERVATIONS ARE NON NWS ARE NOT QUALITY
       CONTROLLED AND MAY MIS-REPORT RAIN FOR SNOW...
$$

  *****  WEATHER ACROSS NORTHERN MINNESOTA  *****

CITY           SKY/WX    TMP DP  RH WIND       PRES   REMARKS
FLAG ISLAND    CLOUDY    54  50  87 W10       29.86F
WARROAD        CLOUDY    52  46  82 W7        29.91S
ROSEAU           N/A     52  46  82 W8        29.91S
HALLOCK        CLOUDY    54  45  71 W7        29.93S
THF RVR FALLS  CLOUDY    52  43  71 W8        29.95F
HALSTAD        NOT AVBL
FOSSTON        CLOUDY    50  41  71 W8        29.96S
BAUDETTE       LGT RAIN  50  50 100 W9        29.89S FOG
WASKISH        CLOUDY    55  46  71 W13G21    29.90S
CROOKSTON      CLOUDY    54  43  66 NW8       29.96F
$$
  *****  WEATHER ACROSS CENTRAL AND WEST MINNESOTA  *****

CITY           SKY/WX    TMP DP  RH WIND       PRES   REMARKS
BEMIDJI        FAIR      48  40  74 W8        29.93S
PARK RAPIDS    FAIR      48  38  68 W7        29.95F
WADENA         FAIR      50  37  62 NW6       29.97F
DETROIT LAKES  FAIR      52  39  62 W8        29.99F
MOORHEAD       FAIR      46  39  76 W7        30.01S
FERGUS FALLS   FAIR      46  39  76 W8        30.00S
ELBOW LAKE     FAIR      49  41  74 NW6       30.02S
MORRIS MN      FAIR      52  43  71 W8        30.02S
STAPLES        FAIR      50  39  66 W7        29.97S
WHEATON        FAIR      52  41  66 W6        30.05F
$$
  *****  WEATHER ELSEWHERE ACROSS MINNESOTA  *****

CITY           SKY/WX    TMP DP  RH WIND       PRES   REMARKS
DULUTH         FAIR      52  49  89 NW13G22   29.85F
INTRNTL FALLS  CLOUDY    53  50  89 W9        29.85F
ELY            CLOUDY    52  50  93 W7G16     29.84S
CLOQUET        CLOUDY    54  46  76 W6        29.88S
BRAINERD       FAIR      54  42  64 NW10      29.95F
HIBBING        CLOUDY    52  47  83 NW9G20    29.88S
ALEXANDRIA     FAIR      53  43  68 NW13      30.01S
SAINT CLOUD    CLOUDY    57  44  62 NW9       29.96S
MINNEAPOLIS    FAIR      59  46  62 W8        29.95S
$$

  *****  WEATHER ACROSS SOUTH DAKOTA  *****

CITY           SKY/WX    TMP DP  RH WIND       PRES   REMARKS
SIOUX FALLS    FAIR      52  43  71 W8        30.11R
BROOKINGS      FAIR      48  42  80 W6        30.10S
WATERTOWN      FAIR      52  41  66 NW9       30.08S
HURON          FAIR      47  43  86 W7        30.12F
SISSETON         N/A     52  40  63 W10       30.04S
ABERDEEN       FAIR      43  39  86 SW6       30.09F
MITCHELL       FAIR      51  41  68 W7        30.14S
PIERRE         FAIR      48  39  71 N5        30.14F
MOBRIDGE       FAIR      45  38  76 CALM      30.10F
RAPID CITY     FAIR      47  29  49 NW8       30.25R
$$

  *****  SOME WEATHER IN NEARBY STATES *****

CITY           SKY/WX    TMP DP  RH WIND       PRES   REMARKS
GLASGOW MT     MOCLDY    52  31  44 N6        30.20R
GREAT FALLS MT CLOUDY    57  39  51 E5        30.31S
CHEYENNE WY    CLOUDY    53  37  54 NE3       30.36S
SCOTTSBLUFF NE MOCLDY    55  36  48 CALM      30.30R
OMAHA NE       FAIR      58  47  66 N3        30.13R
DES MOINES IA  FAIR      59  51  75 W5        30.05S
DAVENPORT IA   FAIR      59  56  89 W8        29.96S
CHICAGO IL     FAIR      66  54  65 W12       29.87R
EAU CLAIRE WI  CLOUDY    57  53  86 W9        29.90R
LA CROSSE WI   MOCLDY    65  53  65 NW13      29.91S
$$

  *****  SOME NATIONAL WEATHER *****

CITY           SKY/WX    TMP DP  RH WIND       PRES   REMARKS
LA GUARDIA NY  LGT RAIN  76  72  87 W13G28    29.61F FOG
RALEIGH NC     MOCLDY    80  74  81 SW18G26   29.83F
ATLANTA GA     MOCLDY    72  71  97 SW8       29.98R
NEW ORLEANS LA FAIR      80  78  94 S8        29.97F
OKLAHOMA CITY  MOCLDY    73  54  51 NE17      30.07F
ALBUQUERQUE NM FAIR      73  55  53 E26G36    30.18R
SALT LAKE CITY FAIR      69  40  34 S3        30.14S
LOS ANGELES CA CLOUDY    62  60  93 W9        29.92S FOG
BOISE ID       FAIR      62  37  39 SE6       30.12S
SEATTLE WA     FAIR      68  48  48 N10       30.15S
$$

*** WEATHER ACROSS MANITOBA...SASKATCHEWAN AND ONTARIO ***
                ***ONTARIO***

CITY           SKY/WX    TMP DP  RH WIND       PRES   REMARKS
GERALDTON      CLEAR     50  48  93 NW5       29.73S
THUNDER BAY    CLOUDY    55  54  94 W6        29.75S
SIOUX LOOKOUT  CLOUDY    54  52  94 NW5       29.79S
TORONTO        PTCLDY    64  54  68 NW9       29.63S
BIG TROUT LK   CLEAR     43  39  87 N7        29.87R
PICKLE LAKE    NOT AVBL
DRYDEN         LGT RAIN  54  52  94 W9        29.80F
KENORA         LGT RAIN  50  48  93 NW8       29.85S
$$
                *** MANITOBA***

CITY           SKY/WX    TMP DP  RH WIND       PRES   REMARKS
BRANDON        MOCLDY    43  41  93 NW8       30.01S
DAUPHIN        CLOUDY    46  43  87 NW9       30.02S
ISLAND LAKE    PTCLDY    46  37  71 NE13      29.98R
PILOT MOUND      N/A     46  43  87 NW9         N/A
THE PAS        LGT RAIN  48  45  87 N16G23    30.10R
THOMPSON       CLOUDY    45  39  81 N5        30.06R
WINNIPEG       PTCLDY    50  48  93 NW9       29.92S
LYNN LAKE      CLOUDY    48  41  76 NW5       30.12S
CHURCHILL      MOCLDY    48  41  76 W3        30.02S
GILLAM         MOCLDY    37  36  93 CALM      30.03S
$$
                ***SASKATCHEWAN***

CITY           SKY/WX    TMP DP  RH WIND       PRES   REMARKS
ESTEVAN        PTCLDY    45  41  87 W10       30.14S
KINDERSLEY     PTCLDY    46  39  76 W3        30.22R
LLOYDMINSTER   CLEAR     46  39  76 W3        30.22R
PRINCE ALBERT  PTCLDY    34  34 100 CALM      30.23R
REGINA         PTCLDY    39  36  87 NW8       30.19R
YORKTON        CLOUDY    45  39  81 NW12G17   30.10F



USA.gov is the U.S. government's official web portal to all federal, state and local government web resources and services.